• In Uzbekistan
  • List of Countries
  • For 7 days
  • Water Temperature
  • Satellite Maps
  • Weather Map
  • Weather Widgets
  • user-avatar
    Login

    Hourly Weather Khashuri

    Today, 22 August, Tuesday

    Time Temperature Precipitation Wind Pressure Humidity
    00:00 +15°C° 0 mm 2 mps 614 mmHg 62%
    01:00 +14°C° 0 mm 2 mps 614 mmHg 63%
    02:00 +14°C° 0 mm 2 mps 614 mmHg 65%
    03:00 +14°C° 0 mm 2 mps 614 mmHg 62%
    04:00 +14°C° 0 mm 2 mps 614 mmHg 64%
    05:00 +14°C° 0 mm 2 mps 614 mmHg 65%
    06:00 +14°C° 0 mm 1 mps 614 mmHg 67%
    07:00 +16°C° 0 mm 1 mps 615 mmHg 60%
    08:00 +20°C° 0 mm 1 mps 616 mmHg 52%
    09:00 +24°C° 0 mm 2 mps 617 mmHg 44%
    10:00 +25°C° 0 mm 2 mps 617 mmHg 41%
    11:00 +26°C° 0 mm 2 mps 618 mmHg 38%
    12:00 +28°C° 0 mm 2 mps 618 mmHg 34%
    13:00 +28°C° 0 mm 2 mps 618 mmHg 35%
    14:00 +28°C° 0 mm 3 mps 617 mmHg 35%
    15:00 +27°C° 0 mm 3 mps 617 mmHg 37%
    16:00 +26°C° 0.1 mm 3 mps 616 mmHg 44%
    17:00 +24°C° 0.1 mm 2 mps 616 mmHg 51%
    18:00 +23°C° 0.1 mm 2 mps 615 mmHg 58%
    19:00 +20°C° 0.1 mm 2 mps 615 mmHg 66%
    20:00 +18°C° 0.1 mm 2 mps 614 mmHg 74%
    21:00 +15°C° 0.1 mm 1 mps 614 mmHg 82%
    22:00 +15°C° 0 mm 1 mps 614 mmHg 82%
    23:00 +15°C° 0 mm 1 mps 614 mmHg 81%

    Tomorrow, 23 August, Wednesday

    Time Temperature Precipitation Wind Pressure Humidity
    00:00 +14°C° 0 mm 1 mps 614 mmHg 80%
    01:00 +14°C° 0 mm 1 mps 614 mmHg 79%
    02:00 +13°C° 0 mm 1 mps 614 mmHg 77%
    03:00 +13°C° 0 mm 1 mps 614 mmHg 76%
    04:00 +13°C° 0 mm 1 mps 614 mmHg 75%
    05:00 +13°C° 0 mm 1 mps 614 mmHg 74%
    06:00 +13°C° 0 mm 1 mps 614 mmHg 74%
    07:00 +16°C° 0 mm 1 mps 615 mmHg 66%
    08:00 +18°C° 0 mm 2 mps 616 mmHg 59%
    09:00 +21°C° 0 mm 2 mps 617 mmHg 52%
    10:00 +23°C° 0 mm 2 mps 617 mmHg 48%
    11:00 +25°C° 0 mm 2 mps 618 mmHg 45%
    12:00 +26°C° 0 mm 2 mps 618 mmHg 41%
    13:00 +25°C° 0.2 mm 3 mps 618 mmHg 44%
    14:00 +25°C° 0.2 mm 4 mps 618 mmHg 48%
    15:00 +23°C° 0.2 mm 4 mps 618 mmHg 51%
    16:00 +22°C° 0.6 mm 4 mps 618 mmHg 60%
    17:00 +20°C° 0.6 mm 3 mps 617 mmHg 68%
    18:00 +18°C° 0.6 mm 3 mps 617 mmHg 77%
    19:00 +17°C° 0 mm 3 mps 617 mmHg 83%
    20:00 +16°C° 0 mm 2 mps 617 mmHg 88%
    21:00 +15°C° 0 mm 2 mps 617 mmHg 94%
    22:00 +14°C° 0 mm 1 mps 617 mmHg 94%
    23:00 +14°C° 0 mm 1 mps 617 mmHg 95%

    Day after tomorrow, 24 August, Thursday

    Time Temperature Precipitation Wind Pressure Humidity
    00:00 +13°C° 0 mm 1 mps 617 mmHg 95%
    01:00 +13°C° 0 mm 1 mps 617 mmHg 94%
    02:00 +13°C° 0 mm 1 mps 617 mmHg 94%
    03:00 +12°C° 0 mm 1 mps 616 mmHg 93%
    04:00 +12°C° 0 mm 1 mps 616 mmHg 91%
    05:00 +12°C° 0 mm 1 mps 616 mmHg 89%
    06:00 +12°C° 0 mm 1 mps 616 mmHg 87%
    07:00 +15°C° 0 mm 1 mps 617 mmHg 77%
    08:00 +18°C° 0 mm 1 mps 618 mmHg 67%
    09:00 +21°C° 0 mm 1 mps 619 mmHg 57%
    10:00 +21°C° 0 mm 2 mps 619 mmHg 53%
    11:00 +23°C° 0 mm 2 mps 620 mmHg 48%
    12:00 +25°C° 0 mm 2 mps 620 mmHg 44%
    13:00 +25°C° 0 mm 3 mps 620 mmHg 45%
    14:00 +24°C° 0 mm 3 mps 620 mmHg 46%
    15:00 +24°C° 0 mm 3 mps 619 mmHg 47%
    16:00 +22°C° 0.1 mm 3 mps 619 mmHg 53%
    17:00 +21°C° 0.1 mm 3 mps 619 mmHg 60%
    18:00 +19°C° 0.1 mm 3 mps 618 mmHg 66%
    19:00 +17°C° 0 mm 2 mps 618 mmHg 73%
    20:00 +16°C° 0 mm 2 mps 618 mmHg 79%
    21:00 +14°C° 0 mm 1 mps 618 mmHg 85%
    22:00 +14°C° 0 mm 1 mps 618 mmHg 83%
    23:00 +13°C° 0 mm 1 mps 618 mmHg 81%

    25 August, Friday

    Time Temperature Precipitation Wind Pressure Humidity
    00:00 +13°C° 0 mm 1 mps 618 mmHg 79%
    01:00 +13°C° 0 mm 1 mps 618 mmHg 79%
    02:00 +12°C° 0 mm 1 mps 618 mmHg 79%
    03:00 +12°C° 0 mm 1 mps 618 mmHg 79%
    04:00 +12°C° 0 mm 1 mps 617 mmHg 79%
    05:00 +12°C° 0 mm 1 mps 617 mmHg 79%
    06:00 +11°C° 0 mm 1 mps 617 mmHg 79%
    07:00 +14°C° 0 mm 1 mps 618 mmHg 71%
    08:00 +16°C° 0 mm 1 mps 619 mmHg 64%
    09:00 +19°C° 0 mm 2 mps 620 mmHg 56%
    10:00 +20°C° 0 mm 2 mps 620 mmHg 52%
    11:00 +21°C° 0 mm 2 mps 620 mmHg 48%
    12:00 +24°C° 0 mm 2 mps 620 mmHg 43%
    13:00 +24°C° 0 mm 3 mps 620 mmHg 45%
    14:00 +22°C° 0 mm 3 mps 620 mmHg 46%
    15:00 +22°C° 0 mm 3 mps 620 mmHg 48%
    16:00 +21°C° 0 mm 3 mps 619 mmHg 55%
    17:00 +20°C° 0 mm 3 mps 619 mmHg 61%
    18:00 +18°C° 0 mm 3 mps 619 mmHg 68%
    19:00 +17°C° 0 mm 2 mps 618 mmHg 75%
    20:00 +15°C° 0 mm 2 mps 618 mmHg 82%
    21:00 +13°C° 0 mm 1 mps 618 mmHg 89%
    22:00 +13°C° 0 mm 1 mps 618 mmHg 88%
    23:00 +13°C° 0 mm 1 mps 618 mmHg 86%

    26 August, Saturday

    Time Temperature Precipitation Wind Pressure Humidity
    00:00 +13°C° 0 mm 1 mps 618 mmHg 85%
    01:00 +12°C° 0 mm 1 mps 618 mmHg 83%
    02:00 +12°C° 0 mm 1 mps 617 mmHg 81%
    03:00 +11°C° 0 mm 1 mps 617 mmHg 79%
    04:00 +11°C° 0 mm 1 mps 617 mmHg 78%
    05:00 +11°C° 0 mm 1 mps 617 mmHg 78%
    06:00 +11°C° 0 mm 1 mps 617 mmHg 77%
    07:00 +13°C° 0 mm 1 mps 618 mmHg 67%
    08:00 +16°C° 0 mm 1 mps 618 mmHg 57%
    09:00 +19°C° 0 mm 2 mps 619 mmHg 47%
    10:00 +20°C° 0 mm 2 mps 619 mmHg 44%
    11:00 +21°C° 0 mm 2 mps 620 mmHg 40%
    12:00 +24°C° 0 mm 2 mps 620 mmHg 36%
    13:00 +24°C° 0 mm 3 mps 619 mmHg 37%
    14:00 +24°C° 0 mm 3 mps 619 mmHg 37%
    15:00 +24°C° 0 mm 3 mps 619 mmHg 38%
    16:00 +22°C° 0 mm 3 mps 619 mmHg 45%
    17:00 +20°C° 0 mm 3 mps 618 mmHg 52%
    18:00 +19°C° 0 mm 2 mps 618 mmHg 59%
    19:00 +17°C° 0 mm 2 mps 617 mmHg 66%
    20:00 +15°C° 0 mm 2 mps 617 mmHg 74%
    21:00 +13°C° 0 mm 1 mps 617 mmHg 81%
    22:00 +12°C° 0 mm 1 mps 617 mmHg 80%
    23:00 +12°C° 0 mm 1 mps 616 mmHg 78%

    27 August, Sunday

    Time Temperature Precipitation Wind Pressure Humidity
    00:00 +12°C° 0 mm 1 mps 616 mmHg 76%
    01:00 +11°C° 0 mm 1 mps 616 mmHg 73%
    02:00 +11°C° 0 mm 1 mps 616 mmHg 71%
    03:00 +11°C° 0 mm 1 mps 615 mmHg 68%
    04:00 +11°C° 0 mm 1 mps 615 mmHg 66%
    05:00 +11°C° 0 mm 1 mps 615 mmHg 63%
    06:00 +11°C° 0 mm 1 mps 615 mmHg 61%
    07:00 +14°C° 0 mm 1 mps 616 mmHg 53%
    08:00 +17°C° 0 mm 2 mps 617 mmHg 45%
    09:00 +20°C° 0 mm 2 mps 618 mmHg 38%
    10:00 +21°C° 0 mm 2 mps 618 mmHg 35%
    11:00 +23°C° 0 mm 2 mps 619 mmHg 33%
    12:00 +25°C° 0 mm 2 mps 619 mmHg 30%
    13:00 +25°C° 0 mm 3 mps 619 mmHg 30%
    14:00 +25°C° 0 mm 3 mps 618 mmHg 31%
    15:00 +25°C° 0 mm 3 mps 618 mmHg 31%
    16:00 +24°C° 0 mm 3 mps 618 mmHg 38%
    17:00 +21°C° 0 mm 2 mps 617 mmHg 44%
    18:00 +19°C° 0 mm 2 mps 617 mmHg 51%
    19:00 +17°C° 0 mm 2 mps 616 mmHg 58%
    20:00 +15°C° 0 mm 1 mps 616 mmHg 65%
    21:00 +13°C° 0 mm 1 mps 615 mmHg 71%
    22:00 +13°C° 0 mm 1 mps 615 mmHg 69%
    23:00 +12°C° 0 mm 1 mps 615 mmHg 66%
    Show more